Location: Boucher Cemetery
(37.7973°N, 89.3437°W)
Time: 00:51:21
(UTC+00:00)

Daily predictions for brighter satellites

Satellite Brightness Start Highest point End
(mag) Time Altitude Azimuth Time Altitude Azimuth Time Altitude Azimuth
NOSS 3-4 (A) 4.3 01:41:52 10° NW 01:49:04 73° WSW 01:57:17 10° SSE
NOSS 3-4 (C) 4.3 01:41:54 10° NW 01:49:06 73° WSW 01:57:17 10° SSE
Cosmos 1666 Rocket 3.6 01:50:18 10° N 01:54:40 89° W 01:59:01 10° S
COSMOS 2406 3.2 01:49:15 10° SSW 01:55:01 82° ESE 02:00:46 10° NNE
Cosmos 1766 3.5 01:51:21 10° N 01:55:01 47° E 01:58:36 10° SSE
Cosmos 1092 Rocket 4.1 01:49:58 10° S 01:56:18 86° E 02:02:40 10° N
Cosmos 1674 2.7 01:54:00 10° SSE 01:57:19 46° E 02:00:40 10° NNE
Cosmos 1980 Rocket 2.3 01:51:53 10° NNW 01:57:34 72° ENE 02:03:12 10° SSE
CSL-04 Debris 4.2 01:52:40 10° SSE 01:58:06 87° ENE 02:03:32 10° NNW
Cosmos 2322 Rocket 4.4 01:56:26 10° NNE 01:58:08 11° NE 01:59:51 10° ENE
Cosmos 1763 Rocket 4.0 01:55:06 10° N 02:00:06 44° ENE 02:05:00 10° SE
ATLAS CENTAUR R/B 2.9 02:01:51 10° SE 02:03:02 11° ESE 02:04:13 10° E
USA 234 3.3 02:00:08 10° NE 02:06:36 61° SE 02:13:01 10° SSW
Cosmos 1933 Rocket 4.4 02:07:34 10° NNE 02:11:36 33° ENE 02:15:12 12° SE
IRIDIUM 114 4.4 02:08:14 10° N 02:13:25 65° E 02:18:35 10° SSE
Meteor 2-12 Rocket 4.5 02:08:19 10° S 02:14:23 65° E 02:20:28 10° NNE
Resurs 01 Rocket 2.2 02:11:04 10° S 02:15:23 57° W 02:19:44 10° NNW
Cosmos 1908 4.3 02:14:07 10° NNE 02:17:08 25° ENE 02:19:19 15° SE
Terra 3.3 02:16:12 12° ESE 02:19:23 22° ENE 02:22:56 10° NNE
IRIDIUM 103 4.3 02:17:21 10° N 02:22:36 80° E 02:27:47 10° S
ARGOS Delta rocket 4.1 02:23:05 14° SE 02:26:41 44° ENE 02:30:52 10° N
Cosmos 1470 2.8 02:23:10 10° N 02:26:48 52° E 02:29:33 16° SSE
CZ-4 R/B 4.0 02:27:32 10° SW 02:30:05 16° W 02:32:40 10° NW
Ariane Rocket 4.3 02:27:25 14° ESE 02:30:37 24° ENE 02:34:40 10° NNE
CZ-4B R/B 4.4 02:26:16 10° SSW 02:31:08 38° W 02:36:04 10° NNW
Cosmos 468 Rocket 4.2 02:26:04 10° N 02:31:12 55° ENE 02:35:01 17° SE
KORONAS-FOTON 4.0 02:30:07 10° SSW 02:33:48 68° W 02:37:30 10° N
Cosmos 1842 4.0 02:35:57 10° SSW 02:39:30 50° W 02:43:04 10° N
SJ 16-02 3.2 02:40:03 13° E 02:40:03 13° E 02:41:56 10° ENE
ATLAS 2AS CENTAUR R/B 4.2 02:39:21 10° N 02:44:40 23° NE 02:49:49 10° E
Cosmos 2360 Rocket 3.8 02:44:41 10° N 02:48:58 22° NE 02:52:15 14° E
IRS-1C Rocket 4.1 02:45:32 19° SSE 02:49:23 71° ENE 02:54:38 10° N
In-Cosmos 22 4.1 02:44:21 10° S 02:50:00 76° E 02:55:33 10° NNE
Cosmos 540 Rocket 3.4 02:45:29 10° NNW 02:50:40 87° WSW 02:54:15 20° SSE
Meteor 1-23 Rocket 4.5 02:47:06 17° SSE 02:51:15 49° E 02:56:44 10° NNE
Cosmos 1417 Rocket 4.5 02:47:42 10° N 02:53:51 66° E 02:58:05 21° SSE
RESURS DK-1 3.8 02:50:37 10° N 02:53:59 24° ENE 02:55:35 19° E
SPOT 3 Rocket 4.3 02:51:37 22° ESE 02:54:18 37° ENE 02:59:01 10° N
Meteor 1-15 Rocket 4.4 02:52:32 10° N 02:57:59 54° ENE 03:01:06 25° SE
Cosmos 968 Rocket 4.1 02:57:17 25° SE 02:59:25 36° E 03:04:06 10° NE
SL-16 R/B 2.5 02:54:37 10° NNW 03:00:11 53° ENE 03:03:14 26° SE
Cosmos 2333 Rocket 3.6 02:57:26 10° N 03:02:08 25° ENE 03:05:07 17° E
MOS 1 Rocket 4.0 02:59:27 25° SE 03:02:20 50° ENE 03:07:28 10° N
Cosmos 1741 Rocket 4.1 02:58:34 17° S 03:02:30 55° ESE 03:07:40 10° NNE
Okean-O 3.6 02:58:43 12° S 03:02:32 42° W 03:06:44 10° NNW
Cosmos 1707 4.4 03:01:19 10° SW 03:04:32 30° WNW 03:07:46 10° NNW
Cosmos 1733 Rocket 4.3 03:01:02 10° NNE 03:04:45 26° ENE 03:05:48 24° E
SeaSat 1 2.6 03:02:21 27° SE 03:04:56 63° ENE 03:09:47 10° NNW
Atlas Centaur 2 3.3 03:01:43 10° WSW 03:09:31 49° S 03:14:18 24° SE
Cosmos 1758 4.0 03:05:58 10° NNE 03:09:35 35° E 03:10:17 32° ESE
USA 245 2.9 03:10:21 44° SSE 03:11:21 85° ENE 03:15:23 10° N
Cosmos 1833 4.5 03:08:31 25° SSE 03:11:22 45° ESE 03:16:42 10° NE
SPOT 5 3.5 03:14:17 19° SSW 03:17:05 44° W 03:21:15 10° NNW
IRS-1A Rocket 4.4 03:14:38 22° S 03:18:17 66° WSW 03:23:45 10° NNW
SL-08 ROCKET BODY 4.5 03:14:48 14° S 03:20:11 82° W 03:26:18 10° N
Cosmos 2228 Rocket 3.1 03:18:36 35° SSE 03:20:24 68° E 03:24:57 10° NNE
Okean O Rocket 4.3 03:20:55 10° WSW 03:22:59 13° W 03:25:03 10° WNW
Tiangong -1.5 03:20:01 10° W 03:22:45 43° SW 03:22:45 43° SW
Spot 1 4.3 03:22:28 10° NNE 03:27:02 58° ESE 03:28:28 41° SSE
Cosmos 1356 Rocket 3.3 03:25:56 43° S 03:27:14 79° E 03:31:27 10° NNE
Cosmos 1869 Rocket 4.1 03:23:49 10° NNW 03:28:10 56° W 03:30:17 28° SSW
Meteor 1-12 Rocket 4.3 03:24:07 10° N 03:30:10 80° E 03:32:54 34° SSE
S3M 4.1 03:24:36 10° N 03:30:58 76° W 03:34:41 26° S
Cosmos 1400 Rocket 3.8 03:28:43 18° SW 03:31:19 42° WNW 03:35:01 10° N
ERS-1 Rocket 3.4 03:30:43 27° SSW 03:33:20 55° W 03:38:17 10° NNW
Cosmos 1655 Rocket 4.1 03:34:27 21° SSW 03:38:57 78° W 03:45:22 10° N
Cosmos 841 Rocket 3.6 03:34:52 10° NNW 03:40:07 73° WSW 03:41:59 40° S
ATLAS CENTAUR R/B 2.3 03:36:59 10° SW 03:40:14 38° NW 03:43:35 10° NNE
Cosmos 2322 Rocket 2.2 03:37:26 10° NNW 03:43:08 76° ENE 03:44:58 44° SE
Cosmos 1300 2.4 03:39:40 10° N 03:43:14 86° W 03:43:14 86° W
Spot 2 Rocket 3.8 03:42:27 34° SSW 03:44:30 60° W 03:49:32 10° NNW
Aureole 3 3.1 03:48:02 77° SE 03:48:10 79° E 03:52:37 10° N
Cosmos 1315 Rocket 3.5 03:49:43 41° ENE 03:49:43 41° ENE 03:52:56 10° NNE
Meteor 2-10 Rocket 3.9 03:49:05 10° NNW 03:54:31 61° W 03:56:28 37° SSW
Cosmos 1953 3.6 03:51:56 10° NNE 03:54:38 27° ENE 03:54:38 27° ENE
Cosmos 1862 Rocket 3.8 03:55:14 46° SW 03:56:20 64° W 04:00:43 10° N
Terra 3.0 03:54:54 26° SW 03:56:43 35° W 04:01:03 10° NNW
Meteor 1-21 4.5 03:54:03 29° SSW 03:57:05 70° W 04:02:54 10° N
Cosmos 1244 Rocket 4.5 03:56:24 45° SSE 03:58:19 69° E 04:04:34 10° NNE
Landsat 5 4.0 04:01:03 10° N 04:05:00 53° WNW 04:05:57 42° WSW
COSMOS 2428 4.3 04:02:56 10° N 04:07:21 22° NE 04:09:13 19° E
Cosmos 2219 Rocket 2.7 04:03:16 10° N 04:08:45 47° ENE 04:09:56 41° E
Okean 3 3.8 04:08:31 51° WSW 04:09:00 55° W 04:13:06 10° N
Ariane Rocket 4.1 04:07:33 28° SW 04:09:18 36° W 04:14:00 10° NNW
CZ-2C R/B 4.1 04:06:17 10° NNE 04:10:01 48° ENE 04:10:01 48° ENE
BlueWalker 3 4.0 04:15:31 19° NE 04:15:31 19° NE 04:16:39 10° NE
SJ 16-02 2.2 04:16:45 37° WSW 04:17:49 45° WNW 04:21:59 10° N
Meteor 1-4 Rocket 4.3 04:21:23 25° NW 04:21:23 25° NW 04:23:04 10° N
H-2A R/B 4.1 04:22:54 25° ENE 04:22:54 25° ENE 04:26:04 10° NNE
COSMOS 2455 3.5 04:24:42 38° E 04:24:42 38° E 04:29:37 10° NE
CZ-4C R/B 3.5 04:28:06 21° ENE 04:28:06 21° ENE 04:30:10 10° NE
Cosmos 1346 Rocket 4.2 04:23:00 10° NNW 04:26:15 29° W 04:26:15 29° W
SL-08 R/B 4.3 04:25:30 56° S 04:26:55 89° WNW 04:33:02 10° N
ARIANE 5 R/B 3.0 04:31:12 54° NE 04:31:12 54° NE 04:34:58 10° N
DNEPR-1 R/B 4.3 04:24:45 10° NNW 04:31:04 63° NE 04:31:50 57° E
RESURS DK-1 4.1 04:28:18 10° NW 04:31:10 23° W 04:31:10 23° W
Cosmos 2360 Rocket 2.5 04:27:46 10° NNW 04:33:16 53° WSW 04:34:00 49° SW
ATLAS 2AS CENTAUR R/B 2.5 04:29:30 10° NW 04:36:15 76° WSW 04:37:28 60° S
Cosmos 1570 Rocket 4.4 04:35:36 10° N 04:40:49 52° ENE 04:41:05 52° E
SL-16 R/B 4.0 04:39:54 10° WNW 04:43:46 19° W 04:45:05 18° WSW
Cosmos 1455 3.7 04:41:59 10° NNW 04:44:05 33° NNW 04:44:05 33° NNW
SL-24 R/B - RUBIN 2 4.3 04:39:36 10° NNW 04:46:09 75° ENE 04:47:01 64° ESE
Cosmos 2333 Rocket 2.8 04:41:08 10° NW 04:46:35 45° WSW 04:47:07 44° WSW
USA 281 3.2 04:45:41 58° SE 04:47:03 78° ENE 04:53:39 10° NNW
Okean 1-7 4.3 04:47:58 33° W 04:48:12 34° WNW 04:52:08 10° NNW
CZ-2C R/B 3.2 04:50:23 70° ESE 04:50:43 73° E 05:04:24 10° N
GP-B 3.6 04:49:35 10° N 04:53:24 58° NW 04:53:24 58° NW
Cosmos 1908 Rocket 4.3 04:52:06 10° NNW 04:55:38 47° WNW 04:55:38 47° WNW
Atlas Centaur 2 3.9 04:51:06 10° W 04:56:31 30° SW 04:56:31 30° SW
Cosmos 1782 Rocket 4.2 04:54:50 10° N 04:58:10 52° N 04:58:10 52° N
Cosmos 2237 Rocket 3.7 05:03:16 10° N 05:08:00 27° ENE 05:09:20 24° E
Meteor 1-24 Rocket 4.1 05:08:46 53° E 05:08:46 53° E 05:14:04 10° NNE
Cosmos 2227 Rocket 3.7 05:10:41 24° E 05:10:41 24° E 05:14:02 10° NE
Cosmos 1745 Rocket 4.1 05:08:42 58° SW 05:09:45 68° W 05:16:06 10° N
Cosmos 2322 3.6 05:04:49 10° NNW 05:10:30 88° NE 05:10:30 88° NE
Cosmos 839 Rocket 4.2 05:05:35 10° NW 05:11:55 55° WSW 05:12:09 55° WSW
Cosmos 2208 Rocket 4.1 05:09:20 10° NNW 05:14:06 72° NNE 05:14:06 72° NNE
H-2A R/B 4.1 05:12:45 10° NE 05:14:25 19° ENE 05:14:25 19° ENE
Cosmos 1300 Rocket 4.4 05:13:17 10° N 05:16:26 47° NNW 05:16:26 47° NNW
Cosmos 1503 Rocket 4.3 05:20:32 60° ENE 05:20:32 60° ENE 05:25:05 10° NNE
ALOS 2 3.4 05:23:09 49° NNE 05:23:09 49° NNE 05:26:29 10° N
Nadezhda 1 Rocket 4.2 05:17:47 10° NNW 05:23:54 58° W 05:24:27 56° WSW
Cosmos 2322 Rocket 4.4 05:24:00 10° WNW 05:26:24 13° W 05:26:46 13° W
Cosmos 2297 Rocket 2.2 05:29:40 75° NE 05:29:40 75° NE 05:34:55 10° NNE
Cosmos 2181 Rocket 4.4 05:24:58 10° N 05:30:57 49° E 05:31:22 48° E
CENTAUR R/B 3.3 05:33:38 32° E 05:33:38 32° E 05:38:03 10° NE
CZ-3 Stage 3 3.8 05:09:32 10° W 05:35:07 48° SSW 05:35:53 47° SSW
Cosmos 2074 Rocket 4.5 05:38:32 45° E 05:38:40 45° E 05:44:30 10° NNE
Meteor 2-5 Rocket 3.8 05:41:48 77° W 05:41:53 77° W 05:47:47 10° N
Cosmos 371 Rocket 4.3 05:50:32 40° WNW 05:50:32 40° WNW 05:54:48 10° N
COSMOS 2428 3.2 05:46:21 10° NNW 05:51:11 48° W 05:51:11 48° W
Cosmos 2219 Rocket 3.9 05:48:04 10° NW 05:51:37 21° W 05:51:37 21° W
Cosmos 1354 Rocket 4.3 06:01:43 65° NW 06:01:43 65° NW 06:06:39 10° NNE
Cosmos 2263 Rocket 3.6 06:03:48 26° E 06:03:48 26° E 06:07:38 10° NE
COSMOS 2455 4.2 06:07:48 25° W 06:10:00 32° NW 06:15:23 10° N
NOSS 0 Rocket 4.1 06:04:14 10° NNW 06:10:02 57° W 06:10:02 57° W
SL-12 R/B(2) 4.0 06:09:01 61° S 06:10:32 76° ESE 06:19:43 10° NE
Cosmos 1295 Rocket 4.3 06:12:48 75° ESE 06:12:56 76° E 06:19:03 10° N
CZ-4C R/B 3.4 06:13:09 25° WNW 06:14:12 27° NW 06:18:44 10° NNE
NOSS 3-2 (A) 3.7 06:18:59 44° E 06:18:59 44° E 06:23:26 10° NE
Nadezhda 3 Rocket 4.3 06:13:22 10° N 06:19:31 55° E 06:20:15 52° ESE
Cosmos 2184 Rocket 3.9 06:22:41 77° SW 06:23:04 81° W 06:29:28 10° N
Meteor 2-11 Rocket 4.3 06:27:04 75° ESE 06:27:17 76° E 06:33:22 10° N
Okean 1 Rocket 4.0 06:24:50 10° N 06:27:58 47° N 06:27:58 47° N
Nimbus 7 Rocket 4.4 06:26:02 10° NNE 06:32:06 67° ESE 06:32:23 66° ESE
Cosmos 292 Rocket 4.4 06:38:10 50° ENE 06:38:10 50° ENE 06:42:00 10° NNE
Cosmos 967 Rocket 4.3 06:39:22 76° S 06:39:49 82° ESE 06:46:20 10° NNE
Cosmos 2154 Rocket 3.9 06:39:30 71° WSW 06:39:55 73° W 06:46:12 10° N
Cosmos 2327 Rocket 4.3 06:44:23 70° SE 06:44:52 73° E 06:50:57 10° N
SL-16 R/B 2.9 06:39:37 10° NNW 06:45:08 49° ENE 06:46:35 40° ESE
SL-4 R/B 3.7 06:42:58 10° NW 06:45:06 29° NW 06:45:06 29° NW
Cosmos 990 Rocket 4.3 06:48:20 57° NW 06:48:20 57° NW 06:53:08 10° N
Cosmos 1975 Rocket 3.9 06:49:56 47° NE 06:49:56 47° NE 06:53:21 10° NNE
Cosmos 2082 3.7 06:51:06 70° ESE 06:51:06 70° ESE 06:56:40 10° NNE
H-2A R/B 3.8 06:48:27 10° NNW 06:51:12 23° NW 06:51:12 23° NW
Cosmos 2237 Rocket 3.0 06:46:54 10° NW 06:51:08 37° W 06:51:08 37° W
Cosmos 2227 Rocket 3.0 06:52:28 38° W 06:53:12 39° WNW 06:58:29 10° N
IDEFIX/ARIANE 42P 3.8 06:52:26 10° NE 06:56:58 29° E 06:57:28 29° ESE
SL-8 Rocket 4.3 06:57:09 48° SE 06:58:13 54° E 07:04:13 10° NNE
Meteor 1-11 4.3 07:04:41 62° SE 07:05:18 67° E 07:11:04 10° NNE
Cosmos 1455 Rocket 3.5 07:02:00 10° N 07:05:42 61° N 07:05:42 61° N
CZ-2D R/B 3.6 07:02:17 10° NE 07:06:37 25° E 07:07:38 24° ESE
Cosmos 962 Rocket 4.4 07:06:13 67° S 07:07:11 88° E 07:13:34 10° N
COBE Rocket 4.4 07:02:32 10° NNE 07:07:34 51° E 07:07:50 51° ESE
Meteor 1-21 Rocket 4.4 07:07:55 59° W 07:08:15 61° W 07:13:56 10° N
Cosmos 1538 Rocket 3.9 07:03:14 10° NNW 07:08:16 80° WNW 07:08:16 80° WNW
Celestis-02/Orion 38 4.5 07:11:02 79° WSW 07:11:05 79° WSW 07:16:29 10° NNW
Cosmos 2297 Rocket 4.4 07:11:26 11° W 07:13:59 15° NW 07:17:04 10° NNW
Cosmos 2219 3.7 07:15:09 45° W 07:15:50 47° WNW 07:21:15 10° N
Cosmos 1025 Rocket 4.5 07:17:45 28° NW 07:17:45 28° NW 07:20:47 10° NNW
Cosmos 1606 4.0 07:17:15 10° N 07:19:53 36° NE 07:19:53 36° NE
Cosmos 372 Rocket 3.9 07:22:07 75° W 07:22:20 77° WNW 07:27:35 10° NNE
CENTAUR R/B 3.5 07:20:44 27° W 07:22:53 35° NW 07:29:03 10° NNE
Aureole 1 Rocket 4.3 07:23:52 28° NW 07:23:52 28° NW 07:26:37 10° N
NPP 4.1 07:18:36 10° NNE 07:23:52 52° E 07:24:45 47° SE
Cosmos 2341 Rocket 3.9 07:27:49 60° SSW 07:28:58 78° W 07:35:13 10° N
USA 238 DEB 4.0 07:28:50 39° SE 07:30:02 44° ESE 07:36:07 10° NE
USA 238 4.0 07:28:52 39° SE 07:30:05 43° ESE 07:36:09 10° NE
Helios 1A Rocket 3.9 07:33:25 37° NW 07:33:25 37° NW 07:35:53 10° NNW
ADEOS II 3.5 07:28:04 10° NE 07:32:35 29° E 07:34:19 24° SE
Cosmos 1461 3.4 07:36:27 50° NNW 07:36:27 50° NNW 07:39:46 10° NNE
Cosmos 923 Rocket 4.0 07:31:16 10° NNW 07:36:32 75° ENE 07:37:48 51° SE
Cosmos 1937 Rocket 3.6 07:38:33 59° WSW 07:39:06 63° WNW 07:44:20 10° NNE
Cosmos 864 Rocket 4.4 07:38:09 54° SSW 07:39:42 81° W 07:46:03 10° N
MOZ.5/SAFIR/RUBIN 5/SL-8 3.6 07:39:56 81° SSW 07:40:08 86° W 07:44:48 10° NNW
Meteor 2-1 Rocket 4.2 07:35:41 10° NNW 07:41:33 75° W 07:42:41 57° SSW
Cosmos 1898 Rocket 4.1 07:42:11 39° W 07:42:46 41° WNW 07:47:40 10° N
Resurs 1-4 Rocket 2.3 07:40:51 10° NNE 07:46:06 64° ESE 07:47:22 48° SSE
Cosmos 2263 Rocket 3.0 07:45:28 33° W 07:46:41 37° WNW 07:51:50 10° N
Cosmos 1821 Rocket 3.9 08:00:01 42° S 08:02:17 87° E 08:08:26 10° N
Cosmos 2218 Rocket 4.3 08:03:34 40° SW 08:05:18 51° W 08:11:19 10° N
Cosmos 1844 Rocket 2.9 08:04:20 39° S 08:06:15 61° ESE 08:11:44 10° NNE
Meteor 1-27 4.4 08:00:34 10° N 08:06:24 72° E 08:09:44 26° SSE
Delta 2 Rocket 3.5 08:07:47 52° SE 08:07:47 52° SE 08:11:13 10° E
Cosmos 1869 4.2 08:03:38 10° NNW 08:06:12 33° WNW 08:06:12 33° WNW
ALOS 3.4 08:06:57 10° NNE 08:11:11 35° E 08:13:24 23° SSE
Cosmos 1437 Rocket 2.5 08:12:41 77° SSW 08:12:56 88° W 08:16:46 10° N
NOSS 3-2 (C) 3.8 08:12:44 32° W 08:14:38 44° NW 08:20:19 10° NNE
Cosmos 1544 Rocket 4.1 08:13:52 10° NNW 08:18:00 39° W 08:18:04 39° W
Cosmos 1680 Rocket 3.5 08:13:34 10° NNW 08:18:41 60° WSW 08:20:14 42° SSW
USA 267 3.3 08:14:18 10° NE 08:20:50 70° SE 08:24:01 33° SSW
Cosmos 2112 Rocket 3.9 08:15:49 10° NNW 08:20:58 70° WSW 08:23:05 35° S
Cosmos 1818 3.5 08:15:51 10° NW 08:21:18 70° WSW 08:24:47 22° SSE
Cosmos 2228 3.2 08:17:28 10° NNW 08:21:38 49° W 08:21:59 48° WSW
MSX 4.1 08:17:51 10° N 08:23:24 52° WNW 08:25:34 34° SW
COSMOS 2441 4.4 08:22:50 10° N 08:27:37 66° WNW 08:29:13 40° SW
SL-16 R/B 3.6 08:24:40 10° NW 08:28:24 21° W 08:28:24 21° W
Cosmos 1603 3.9 08:28:21 10° NNW 08:34:07 75° ENE 08:39:48 10° SSE
SL-16 R/B 2.8 08:29:13 10° SSE 08:35:26 72° ENE 08:41:39 10° N
IDEFIX/ARIANE 42P 3.6 08:31:50 10° N 08:36:24 31° WNW 08:38:13 25° WSW
CZ-2C R/B 2.9 08:37:16 33° SSW 08:39:08 46° W 08:44:16 10° NNW
Cosmos 1934 Rocket 4.2 08:36:19 19° S 08:41:01 74° E 08:47:23 10° N
SEDSat Delta rocket 3.7 08:41:06 30° S 08:41:06 30° S 08:44:37 10° ESE
Cosmos 2123 Rocket 4.4 08:36:06 10° N 08:42:14 64° E 08:48:23 10° SSE
CZ-2C R/B 3.5 08:37:33 10° N 08:42:41 47° WNW 08:44:53 29° SW
Cosmos 1943 3.2 08:38:25 10° NNW 08:43:53 55° WSW 08:47:43 19° S
CZ-2D R/B 2.9 08:41:49 10° N 08:46:39 37° WNW 08:48:55 25° WSW
FENGYUN 3A 3.9 08:44:51 10° N 08:50:05 54° WNW 08:52:54 26° SW
Cosmos 1606 Rocket 3.5 08:49:13 10° NNW 08:53:37 66° W 08:56:15 23° S
Envisat 3.8 08:48:54 10° NNE 08:53:48 48° E 08:58:28 11° S
Cosmos 921 Rocket 2.8 08:50:15 10° NNW 08:54:28 79° WSW 08:57:55 15° S
ASTEX 1 3.3 08:52:23 23° S 08:55:22 64° W 09:00:12 10° NNW
Cosmos 1048 Rocket 4.2 08:50:11 10° NNW 08:55:26 75° ENE 09:00:43 10° SSE
Cosmos 1125 Rocket 3.5 08:57:56 22° SSW 09:01:24 88° WNW 09:06:44 10° NNE
CZ-2C R/B 3.5 09:00:22 10° NNE 09:04:34 36° E 09:08:49 10° SSE
Orbus 7S? 3.7 09:02:43 10° NW 09:06:05 68° SW 09:12:58 10° SSE
Cosmos 1726 Rocket 3.6 09:04:44 10° NNW 09:09:06 60° W 09:12:35 15° S
Cosmos 1238 Rocket 3.5 09:06:05 10° N 09:09:14 40° E 09:12:04 10° SSE
Iridium 2 3.3 09:09:46 33° W 09:09:54 34° W 09:12:12 10° NNW
Cosmos 494 Rocket 4.1 09:06:16 10° NNW 09:11:22 54° WSW 09:16:27 10° S
ADEOS II 3.1 09:07:32 10° N 09:12:08 32° WNW 09:15:11 18° WSW
Cosmos 1812 2.4 09:08:38 10° N 09:12:13 87° W 09:15:37 11° S
Cosmos 2150 Rocket 4.4 09:09:21 13° S 09:14:00 64° ESE 09:19:14 10° NNE
Cosmos 2058 2.8 09:12:18 18° SSW 09:15:12 74° W 09:19:16 10° N
IRAS Rocket 4.3 09:11:04 10° N 09:16:31 66° WNW 09:20:59 15° SSW
SAR-Lupe-4 4.2 09:17:13 10° N 09:20:34 39° WNW 09:22:35 20° SW
USA 81 4.1 09:18:27 10° N 09:23:41 67° W 09:28:53 10° S
YAOGAN 6 3.3 09:20:54 10° NNE 09:23:58 43° E 09:26:59 10° S
Resurs 1-4 Rocket 4.0 09:22:18 10° NNW 09:25:18 16° WNW 09:28:19 10° W
ATLAS 5 CENTAUR R/B 1.4 09:25:49 15° SSW 09:28:21 51° ESE 09:31:39 10° NE
Iridium 4 Rocket 3.2 09:23:51 10° N 09:28:21 72° W 09:33:15 10° S
NOSS 2-2 (E) 3.8 09:25:46 12° S 09:28:50 42° ESE 09:31:51 10° NE
Timation 2 Rocket 4.2 09:23:52 15° SW 09:29:27 64° WNW 09:35:51 10° NNE
UNK 3.9 09:26:24 10° S 09:30:52 51° W 09:35:21 10° NNW
Cosmos 1602 Rocket 4.4 09:33:56 10° S 09:38:15 52° E 09:42:36 10° NNE
Cosmos 724 4.2 09:33:11 10° NNW 09:39:01 83° WSW 09:44:53 10° SSE
Thor Agena Rocket 3.9 09:38:36 10° NNE 09:43:52 69° ESE 09:49:06 10° S
Cosmos 1544 3.3 09:42:30 15° SW 09:44:13 29° W 09:46:34 10° NNW
NOAA 11 4.3 09:40:07 10° N 09:45:31 62° WNW 09:50:53 10° SSW
NOSS 2-3 (D) 3.5 09:42:06 10° SSW 09:45:46 63° ESE 09:49:30 10° NE
Cosmos 1933 4.4 09:43:20 10° N 09:47:08 46° E 09:50:55 10° SSE
Cosmos 2058 Rocket 3.5 09:43:08 10° NNW 09:47:19 43° W 09:51:27 10° SSW
Delta 2 Rocket 3.8 09:43:46 10° W 09:47:36 41° SSW 09:51:46 10° SE
ALOS 3.8 09:44:43 10° NNW 09:48:07 21° WNW 09:51:31 10° WSW
Cosmos 1758 Rocket 3.6 09:46:05 10° S 09:50:31 87° E 09:54:56 10° N
Cosmos 1844 Rocket 4.4 09:46:42 10° W 09:50:32 19° NW 09:54:23 10° N
Cosmos 2298 Rocket 4.3 09:49:29 10° SW 09:54:39 53° WNW 09:59:52 10° N
Cosmos 1666 4.2 09:51:41 10° SSE 09:54:46 32° E 09:57:52 10° NNE
BREEZE-M DEB (TANK) 4.1 09:54:32 10° WSW 09:58:05 75° NNW 10:11:14 10° NE
Cosmos 1607 4.3 09:54:47 10° NW 10:00:47 45° WSW 10:06:38 10° S
USA 267 4.3 09:57:40 10° NNE 10:03:30 36° NNW 10:09:20 10° W
NOSS 2-2 (C) 3.6 10:00:34 10° WSW 10:03:44 36° NW 10:06:39 10° NNE
Cosmos 614 Rocket 4.3 10:01:27 10° NNW 10:06:36 73° ENE 10:11:39 10° SSE
